Miscellaneous Local Product
Issued by NWS Hastings, NE

Home | Current Version | Previous Version | Text Only | Print | Product List | Glossary Off
Versions: 1 2 3 4 5 6 7 8 9 10 11 12 13 14 15 16 17 18 19 20 21 22 23 24 25 26 27 28 29 30 31 32 33 34 35 36 37 38 39 40 41 42 43 44 45 46 47 48 49 50

223
AXUS43 KGID 171602
MISGRI

GID CWA HOURLY WEATHER ROUNDUP
NATIONAL WEATHER SERVICE HASTINGS NE
1100 AM CDT TUE OCT 17 2017

NOTE: "FAIR" INDICATES FEW OR NO CLOUDS BELOW 12,000 FEET WITH NO
SIGNIFICANT WEATHER AND/OR OBSTRUCTIONS TO VISIBILITY.

...SOUTH CENTRAL NEBRASKA...

CITY           SKY/WX    TMP DP  RH WIND       PRES   REMARKS
GRAND ISLAND   SUNNY     61  43  51 CALM      30.11S
HASTINGS       SUNNY     62  42  47 NW7       30.11S
KEARNEY        SUNNY     63  42  46 NW6       30.13S
ORD            SUNNY     60  42  51 NW5       30.10S
YORK           SUNNY     57  43  58 CALM      30.10S
AURORA         SUNNY     61  41  47 CALM      30.10S
LEXINGTON      SUNNY     59  42  53 W6        30.14F
HOLDREGE       SUNNY     64  41  42 N6        30.13F
HEBRON         SUNNY     60  41  50 SW7       30.11F

...NEBRASKA PANHANDLE...

CITY           SKY/WX    TMP DP  RH WIND       PRES   REMARKS
CHADRON        SUNNY     59  27  29 W7        30.11F
ALLIANCE       SUNNY     60  27  28 W13       30.14S
SCOTTSBLUFF    SUNNY     51  27  39 CALM      30.17S
SIDNEY         SUNNY     68  28  22 SW7       30.18F

...WESTERN AND NORTH CENTRAL NEBRASKA...

CITY           SKY/WX    TMP DP  RH WIND       PRES   REMARKS
VALENTINE      SUNNY     63  35  35 SW7       30.09F
AINSWORTH      SUNNY     66  37  33 SW8       30.10S
ONEILL         SUNNY     64  45  50 SW6       30.09S
BROKEN BOW     SUNNY     65  43  44 SW5       30.12F
IMPERIAL       SUNNY     58  31  35 CALM      30.18S
NORTH PLATTE   SUNNY     55  40  56 W6        30.16S
MCCOOK         SUNNY     55  39  54 W6        30.16S

...EASTERN NEBRASKA...

CITY           SKY/WX    TMP DP  RH WIND       PRES   REMARKS
NORFOLK        SUNNY     60  42  51 CALM      30.06F
SO SIOUX CITY  SUNNY     57  46  66 SE6       30.08F
TEKAMAH        SUNNY     58  41  53 VRB3      30.10S
COLUMBUS       SUNNY     56  43  61 CALM      30.09F
ALBION         SUNNY     63  45  51 NW3       30.09S
OMAHA EPPLEY   SUNNY     59  43  55 S9        30.11F
OFFUTT AFB     SUNNY     59  43  56 S7        30.11F
MILLARD        SUNNY     60  44  55 SW3       30.11F
LINCOLN        SUNNY     59  43  55 SW8       30.12F
NEBRASKA CITY  SUNNY     61  44  53 SW13      30.13S
BEATRICE       SUNNY     60  44  54 SW10G16   30.12S
FALLS CITY     SUNNY     62  42  47 S14G22    30.14F

...NORTHERN KANSAS...

CITY           SKY/WX    TMP DP  RH WIND       PRES   REMARKS
GOODLAND       SUNNY     63  31  30 N5        30.19S
HILL CITY      SUNNY     67  37  33 NW6       30.15S
NORTON         SUNNY     68  32  26 CALM      30.14R
PHILLIPSBURG   SUNNY     64  37  36 NW5       30.12F
SMITH CENTER   SUNNY     54  39  58 CALM      30.13S
HAYS           SUNNY     60  39  45 NW3       30.14F
RUSSELL        SUNNY     57  43  59 SW9       30.12F
CONCORDIA      SUNNY     58  43  57 SW9       30.13S
SALINA         SUNNY     63  43  48 SW16      30.15F
TOPEKA         SUNNY     65  43  44 S14G24    30.18F



USA.gov is the U.S. government's official web portal to all federal, state and local government web resources and services.